Flag for Tunisia Weather past 2 weeks in Sfax, Tunisia

Now
59 °F

Passing clouds.


Feels Like: 60 °F
Forecast: 51 / 65 °F
Wind: 3 mph from North

Location: Sfax El-Maou

Current Time: Dec 21, 2014 at 9:33:38 PM

Latest Report: Dec 21, 2014 at 9:00 PM


Visibility: N/A

Pressure: 30.42 "Hg

Humidity: 59%

Dew point: 45 °F

Location of SfaxLocation

Historic Weather in Sfax — Graph

°F

Sfax temperature yesterday

Maximum temperature yesterday: 68 °F (at 12:00 PM)
Minimum temperature yesterday: 52 °F (at 12:00 AM)
Average temperature yesterday: 59 °F

Past Weeks' High & Low Weather Summary

 TemperatureHumidityPressure
High70 °F (Dec 21, 2:00 PM)88% (Dec 10, 10:00 AM)30.42 "Hg (Dec 10, 10:00 AM)
Low43 °F (Dec 13, 6:00 AM)32% (Dec 7, 3:00 PM)29.74 "Hg (Dec 9, 4:00 PM)
Average56 °F65%30.11 "Hg
* Reported Dec 6 8:00 PM — Dec 21 8:00 PM, Sfax, Weather by CustomWeather, © 2014

Note: Actual official high and low records may vary slightly from our data, if they occured in-between our weather recording intervals... More about our weather records

Advertising

Sfax weather history for previous 24 hours

 ConditionsComfort  
Time TempWeatherWind HumidityBarometerVisibility
8:00 PM
Dec 21
61 °FPassing clouds.7 mph55%30.42 "HgN/A
7:00 PM63 °FPassing clouds.8 mph59%30.39 "HgN/A
6:00 PM63 °FPassing clouds.3 mph68%30.36 "HgN/A
5:00 PM63 °FPassing clouds.7 mph59%30.36 "HgN/A
4:00 PM64 °FPassing clouds.7 mph52%30.33 "HgN/A
3:00 PM66 °FPassing clouds.3 mph49%30.33 "HgN/A
2:00 PM70 °FPassing clouds.3 mph38%30.33 "HgN/A
1:00 PM68 °FPassing clouds.7 mph43%30.36 "HgN/A
12:00 PM66 °FPassing clouds.7 mph46%30.36 "HgN/A
11:00 AM64 °FClear.8 mph49%30.39 "Hg5 mi
10:00 AM61 °FClear.6 mph59%30.39 "Hg5 mi
9:00 AM52 °FPassing clouds.3 mph82%30.36 "Hg5 mi
8:00 AM48 °FPassing clouds.5 mph87%30.36 "Hg5 mi
7:00 AM48 °FPassing clouds.6 mph87%30.33 "Hg5 mi
6:00 AM50 °FPassing clouds.6 mph88%30.33 "Hg5 mi
5:00 AM50 °FPassing clouds.3 mph88%30.33 "Hg5 mi
4:00 AM52 °FPassing clouds.6 mph82%30.33 "Hg5 mi
3:00 AM52 °FPassing clouds.6 mph88%30.33 "Hg5 mi
2:00 AM54 °FPassing clouds.6 mph82%30.33 "Hg5 mi
1:00 AM52 °FPassing clouds.6 mph88%30.33 "Hg5 mi
12:00 AM54 °FPassing clouds.6 mph82%30.33 "HgN/A
11:00 PM
Dec 20
54 °FPassing clouds.6 mph82%30.33 "HgN/A
10:00 PM55 °FPassing clouds.2 mph82%30.33 "HgN/A
9:00 PM57 °FPassing clouds.5 mph77%30.33 "HgN/A
Weather by CustomWeather, © 2014

See weather overviewHow to use our weather pages